User: anonymous   Login
Location: Unspecified
(0.0000°N, 0.0000°E)
Time: 01:05:50
(UTC+00:00)
Language:

TBA - TO BE ASSIGNED - Orbit

View from above orbital plane
View from above orbital plane
View from above satellite
View from above satellite

Ground track
Ground track

The orbit is defined by the following mean orbital elements,

1 67744U          26145.58071243 +.00000000 +00000-0 +72921-3 0 00003
2 67744  97.2861 199.1587 0000302 130.8233 229.3036 15.33451895    07
Epoch (UTC): 25 May 2026 13:56:13
Eccentricity: 0.0000302
inclination: 97.2861°
perigee height: 465 km
apogee height: 466 km
right ascension of ascending node: 199.1587°
argument of perigee: 130.8233°
revolutions per day: 15.33451895
mean anomaly at epoch: 229.3036°

The dashed part of the orbit path shows where the satellite is in the earth's shadow,  

DLR